GW1595 Weather Reports


time (UTC)temp
F
wind
direction
speed
knots
gust
knots
rain 1hr
in
rain 24hr
in
rain mn
in
humidity
%
barometer
mb
20260507191738 63 135 3.5 14.8 0.00 0.25 0.25 20 1009.1
20260507191219 62 113 5.2 14.8 0.00 0.25 0.25 19 1009.1
20260507190726 63 90 4.3 14.8 0.00 0.25 0.25 20 1009.1
20260507190717 62 90 4.3 14.8 0.00 0.25 0.25 19 1009.1
20260507185655 63 225 3.5 18.2 0.00 0.25 0.25 18 1009.0
20260507185408 62 135 7.0 18.2 0.00 0.25 0.25 18 1009.0
20260507184629 63 158 8.7 15.6 0.00 0.25 0.25 18 1009.0
20260507184129 64 158 4.3 14.8 0.00 0.25 0.25 18 1009.0
20260507183625 64 158 3.5 14.8 0.00 0.25 0.25 18 1008.7
20260507183353 64 113 3.5 14.8 0.00 0.25 0.25 20 1008.5
20260507182604 63 135 7.0 14.8 0.00 0.25 0.25 19 1008.4
20260507182054 64 90 7.0 13.0 0.00 0.25 0.25 20 1008.5
20260507181551 64 113 1.7 7.8 0.00 0.25 0.25 28 1008.4
20260507181311 63 113 3.5 9.6 0.00 0.25 0.25 28 1008.4
20260507180805 63 113 1.7 9.6 0.00 0.25 0.25 31 1008.5
20260507180023 64 113 0.9 9.6 0.00 0.25 0.25 31 1008.3
20260507175514 64 113 1.7 9.6 0.00 0.25 0.25 33 1008.5
20260507175003 63 135 1.7 6.1 0.00 0.25 0.25 33 1008.5
20260507174454 63 90 1.7 5.2 0.00 0.25 0.25 33 1008.3
20260507174219 63 113 1.7 7.0 0.00 0.25 0.25 32 1008.3
20260507173440 63 90 1.7 7.0 0.00 0.25 0.25 33 1008.3
20260507172918 64 135 1.7 7.8 0.00 0.25 0.25 31 1008.5
20260507172419 63 158 0.9 7.8 0.00 0.25 0.25 29 1008.5
20260507172133 63 90 1.7 6.1 0.00 0.25 0.25 29 1008.6
20260507171338 62 113 1.7 7.8 0.00 0.25 0.25 30 1008.6
20260507170812 62 113 1.7 7.8 0.00 0.25 0.25 32 1008.7
20260507170250 60 68 0.9 7.8 0.00 0.25 0.25 33 1008.5
20260507165748 61 180 2.6 11.3 0.00 0.25 0.25 32 1008.8
20260507165240 61 158 2.6 11.3 0.00 0.25 0.25 33 1008.6
20260507164736 60 135 1.7 9.6 0.00 0.25 0.25 34 1008.7
20260507164234 61 135 1.7 9.6 0.00 0.25 0.25 32 1009.1
20260507163732 62 90 2.6 9.6 0.00 0.25 0.25 30 1009.0
20260507163218 63 113 3.5 9.6 0.00 0.25 0.25 28 1008.6
20260507162714 62 90 3.5 9.6 0.00 0.25 0.25 28 1008.7
20260507162214 63 135 0.9 9.6 0.00 0.25 0.25 34 1009.0
20260507161706 61 113 4.3 11.3 0.00 0.25 0.25 32 1008.8
20260507161656 62 90 1.7 11.3 0.00 0.25 0.25 32 1008.8
20260507160855 61 135 2.6 7.8 0.00 0.25 0.25 34 1009.0
20260507160110 61 113 3.5 7.8 0.00 0.25 0.25 35 1008.8
20260507155555 61 158 3.5 9.6 0.00 0.25 0.25 33 1008.8
20260507155051 60 90 5.2 9.6 0.00 0.25 0.25 34 1009.1
20260507154531 61 158 3.5 9.6 0.00 0.25 0.25 34 1009.0
20260507154020 59 113 3.5 9.6 0.00 0.25 0.25 34 1009.2
20260507153509 59 135 3.5 9.6 0.00 0.25 0.25 35 1009.2
20260507153008 58 135 1.7 9.6 0.00 0.25 0.25 35 1009.3
20260507152738 57 135 1.7 7.8 0.00 0.25 0.25 38 1009.2
20260507151953 57 158 1.7 9.6 0.00 0.25 0.25 36 1009.3
20260507151445 57 135 3.5 9.6 0.00 0.25 0.25 36 1009.0
20260507150916 56 113 3.5 7.8 0.00 0.25 0.25 38 1009.1
20260507150413 57 135 3.5 7.0 0.00 0.25 0.25 36 1009.0
20260507145854 57 135 2.6 6.1 0.00 0.25 0.25 38 1008.6
20260507145400 57 113 0.9 3.5 0.00 0.25 0.25 37 1008.8
20260507145349 57 113 2.6 3.5 0.00 0.25 0.25 37 1008.6
20260507144338 57 135 0.0 3.5 0.00 0.25 0.25 36 1009.3
20260507143821 56 68 0.9 7.0 0.00 0.25 0.25 34 1008.6
20260507143548 56 90 1.7 7.0 0.00 0.25 0.25 34 1009.0
20260507142815 56 135 1.7 7.0 0.00 0.25 0.25 34 1009.2
20260507142307 56 68 0.0 5.2 0.00 0.25 0.25 35 1009.1
20260507141802 55 90 1.7 3.5 0.00 0.25 0.25 37 1009.0
20260507141256 55 113 0.0 1.7 0.00 0.25 0.25 37 1009.2
20260507140738 55 45 0.9 9.6 0.00 0.25 0.25 34 1009.3
20260507140445 56 90 0.9 9.6 0.00 0.25 0.25 32 1009.1
20260507135937 56 135 1.7 7.0 0.00 0.25 0.25 33 1009.1
20260507135145 56 113 1.7 6.1 0.00 0.25 0.25 34 1008.8
20260507134620 56 113 1.7 7.8 0.00 0.25 0.25 35 1008.4
20260507134114 56 113 1.7 7.8 0.00 0.25 0.25 34 1008.6
20260507133601 56 90 1.7 7.8 0.00 0.25 0.25 34 1008.1
20260507133054 56 68 1.7 6.1 0.00 0.25 0.25 34 1007.7
20260507132811 55 45 1.7 13.0 0.00 0.25 0.25 34 1008.2
20260507132037 55 68 1.7 13.0 0.00 0.25 0.25 35 1008.4
20260507131535 55 68 3.5 9.6 0.00 0.25 0.25 34 1008.4
20260507131033 55 45 2.6 9.6 0.00 0.25 0.25 35 1008.5
20260507130536 54 90 1.7 9.6 0.00 0.25 0.25 37 1009.0
20260507130013 54 90 1.7 13.9 0.00 0.25 0.25 40 1008.7
20260507125506 54 90 5.2 13.9 0.00 0.25 0.25 43 1008.6
20260507124954 53 90 3.5 13.0 0.00 0.25 0.25 43 1008.2
20260507124446 53 68 1.7 12.2 0.01 0.25 0.25 47 1008.3
20260507123944 53 338 1.7 7.8 0.01 0.25 0.25 48 1009.1
20260507123423 52 113 3.5 7.8 0.01 0.25 0.25 49 1009.0
20260507122911 52 135 2.6 9.6 0.01 0.25 0.25 58 1008.5
20260507122359 51 68 3.5 9.6 0.01 0.25 0.25 62 1008.5
20260507122128 50 113 3.5 9.6 0.05 0.25 0.25 70 1007.5
20260507121344 49 113 1.7 9.6 0.08 0.25 0.25 71 1007.2
20260507120836 47 113 1.7 7.0 0.12 0.25 0.25 79 1007.1
20260507120326 47 68 1.7 9.6 0.14 0.25 0.25 83 1007.5
20260507115809 47 45 1.7 14.8 0.18 0.25 0.25 87 1008.1
20260507115514 47 68 1.7 14.8 0.19 0.25 0.25 88 1008.3
20260507114737 48 135 0.9 7.0 0.20 0.24 0.24 89 1008.1
20260507114235 48 68 0.9 7.0 0.20 0.24 0.24 90 1007.3
20260507113734 48 113 1.7 5.2 0.21 0.24 0.24 90 1007.7
20260507113217 48 90 0.9 3.5 0.22 0.24 0.24 90 1006.9
20260507112707 48 23 0.0 3.5 0.24 0.24 0.24 90 1006.8
20260507112155 48 113 1.7 6.1 0.22 0.22 0.22 89 1007.1
20260507111915 48 113 1.7 7.0 0.19 0.19 0.19 88 1007.5
20260507111123 48 90 0.9 7.0 0.14 0.14 0.15 88 1007.7
20260507110900 49 45 1.7 9.6 0.08 0.08 0.08 86 1007.4
20260507110618 48 23 1.7 9.6 0.12 0.12 0.12 86 1008.1
20260507105606 49 90 1.7 3.5 0.07 0.07 0.07 85 1007.4
20260507105103 49 68 0.0 5.2 0.06 0.06 0.06 84 1007.7
20260507104824 49 113 0.9 7.8 0.04 0.04 0.04 81 1008.5
20260507104051 49 113 0.9 9.6 0.02 0.02 0.02 80 1007.9
20260507103549 50 90 1.7 13.0 0.01 0.01 0.01 77 1007.1
20260507103302 51 135 1.7 20.9 0.01 0.01 0.01 74 1005.7
20260507102523 53 135 5.2 20.0 0.00 0.00 0.00 64 1004.4
20260507102512 52 68 2.6 20.9 0.00 0.00 0.00 70 1005.0
20260507101726 54 113 2.6 13.0 0.00 0.00 0.00 61 1004.0
20260507100932 54 68 0.9 9.6 0.00 0.00 0.00 60 1004.4
20260507100413 53 90 2.6 19.1 0.00 0.00 0.00 63 1004.6
20260507095905 51 90 3.5 19.1 0.00 0.00 0.00 70 1003.8
20260507095404 53 158 3.5 20.0 0.00 0.00 0.00 67 1004.3
20260507094858 55 180 1.7 20.0 0.00 0.00 0.00 55 1004.4
20260507094357 55 158 4.3 13.0 0.00 0.00 0.00 52 1004.7
20260507093834 56 180 3.5 13.0 0.00 0.00 0.00 51 1004.1
20260507093336 56 113 3.5 14.8 0.00 0.00 0.00 50 1003.7
20260507092832 56 158 4.3 14.8 0.00 0.00 0.00 50 1003.2
20260507092310 56 90 2.6 14.8 0.00 0.00 0.00 49 1003.1
20260507091759 57 90 1.7 13.9 0.00 0.00 0.00 47 1003.3
20260507091300 57 203 3.5 13.9 0.00 0.00 0.00 46 1003.2
20260507090737 57 135 4.3 12.2 0.00 0.00 0.00 47 1003.1
20260507090235 57 45 3.5 11.3 0.00 0.00 0.00 49 1003.6
20260507090224 57 68 2.6 12.2 0.00 0.00 0.00 48 1003.6
20260507085446 58 45 3.5 11.3 0.00 0.00 0.00 48 1004.0
20260507084720 58 315 2.6 14.8 0.00 0.00 0.00 48 1003.7
20260507084711 58 90 3.5 11.3 0.00 0.00 0.00 47 1003.9
20260507083702 58 293 3.5 14.8 0.00 0.00 0.00 47 1003.6
20260507083152 58 135 3.5 11.3 0.00 0.00 0.00 47 1003.3
20260507083132 58 90 2.6 11.3 0.00 0.00 0.00 47 1003.7
20260507082127 58 23 1.7 12.2 0.00 0.00 0.00 48 1003.7
20260507081845 58 68 1.7 12.2 0.00 0.00 0.00 47 1003.9
20260507081050 58 158 1.7 9.6 0.00 0.00 0.00 47 1004.3
20260507080545 58 68 2.6 9.6 0.00 0.00 0.00 47 1004.4
20260507080310 59 0 4.3 14.8 0.00 0.00 0.00 47 1004.1
20260507075526 59 180 2.6 14.8 0.00 0.00 0.00 47 1004.2
20260507075024 59 0 1.7 7.8 0.00 0.00 0.00 47 1004.4
20260507074745 59 135 2.6 9.6 0.00 0.00 0.00 47 1004.8
20260507073948 59 90 3.5 13.9 0.00 0.00 0.00 47 1004.2
20260507073708 59 90 3.5 13.9 0.00 0.00 0.00 47 1004.4
20260507072920 59 0 2.6 18.2 0.00 0.00 0.00 49 1004.2
20260507072414 60 113 1.7 18.2 0.00 0.00 0.00 48 1004.2
20260507071859 59 68 1.7 9.6 0.00 0.00 0.00 48 1004.2
20260507071349 60 113 3.5 11.3 0.00 0.00 0.00 47 1004.1
20260507070847 60 113 1.7 11.3 0.00 0.00 0.00 47 1004.1
20260507070323 60 68 3.5 7.0 0.00 0.00 0.00 46 1004.3
20260507065805 60 90 0.9 7.8 0.00 0.00 0.00 47 1004.4
20260507065510 60 113 3.5 7.8 0.00 0.00 0.00 46 1004.2
20260507064731 60 113 1.7 7.0 0.00 0.00 0.00 48 1004.1
20260507064214 60 90 1.7 9.6 0.00 0.00 0.00 48 1004.0
20260507063703 61 135 0.9 9.6 0.00 0.00 0.00 48 1004.1
20260507063652 60 113 0.9 9.6 0.00 0.00 0.00 49 1003.9
20260507062852 61 68 2.6 9.6 0.00 0.00 0.00 49 1004.0
20260507062343 61 90 0.9 7.8 0.00 0.00 0.00 53 1003.8
20260507061604 62 113 1.7 7.8 0.00 0.00 0.00 54 1004.1
20260507061324 62 158 0.9 7.0 0.00 0.00 0.00 59 1004.0
20260507060552 62 90 1.7 7.0 0.00 0.00 0.00 61 1004.2
20260507060530 62 158 1.7 6.1 0.00 0.00 0.00 64 1004.3
20260507055519 62 113 1.7 9.6 0.00 0.00 0.00 66 1004.1
20260507055000 62 23 3.5 9.6 0.00 0.00 0.00 69 1004.1
20260507054449 62 0 0.9 12.2 0.00 0.00 0.00 70 1004.1
20260507053946 63 158 2.6 12.2 0.00 0.00 0.00 69 1004.3
20260507053425 63 45 0.9 7.8 0.00 0.00 0.00 77 1004.2
20260507053416 63 90 1.7 6.1 0.00 0.00 0.00 73 1004.2
20260507052406 64 158 1.7 7.8 0.00 0.00 0.00 78 1004.2
20260507051845 63 45 1.7 6.1 0.00 0.00 0.00 82 1004.2
20260507051328 62 90 0.0 3.5 0.00 0.00 0.00 86 1004.3
20260507050808 62 113 0.9 1.7 0.00 0.00 0.00 90 1004.2
20260507050257 63 90 0.0 3.5 0.00 0.00 0.00 91 1004.2
20260507045737 63 113 0.0 3.5 0.00 0.00 0.00 92 1004.3
20260507045222 62 90 1.7 3.5 0.00 0.00 0.00 92 1004.3
20260507044657 62 113 0.9 3.5 0.00 0.00 0.00 92 1004.2
20260507044136 61 135 0.9 3.5 0.00 0.00 0.00 92 1004.3
20260507043637 61 158 1.7 3.5 0.00 0.00 0.00 92 1004.7
20260507043124 62 135 1.7 1.7 0.00 0.00 0.00 92 1004.3
20260507042616 62 158 0.0 3.5 0.00 0.00 0.00 92 1004.3
20260507042115 62 135 0.9 3.5 0.00 0.00 0.00 92 1004.2
20260507041833 62 135 0.0 1.7 0.00 0.00 0.00 92 1004.4
20260507041102 62 135 0.9 1.7 0.00 0.00 0.00 92 1004.3
20260507040831 62 23 0.0 1.7 0.00 0.00 0.00 93 1004.4
20260507040058 62 0 0.0 0.0 0.00 0.00 0.00 93 1004.4
20260507035547 62 0 0.0 0.0 0.00 0.00 0.00 93 1004.1
20260507035039 62 0 0.0 0.0 0.00 0.00 0.00 93 1004.4
20260507034539 62 0 0.0 1.7 0.00 0.00 0.00 93 1004.6
20260507034241 62 0 0.0 1.7 0.00 0.00 0.00 93 1005.0
20260507033504 62 0 0.0 0.0 0.00 0.00 0.00 93 1004.4
20260507032947 62 0 0.0 0.0 0.00 0.00 0.00 93 1004.4
20260507032444 62 0 0.0 0.0 0.00 0.00 0.00 93 1004.6
20260507031937 62 338 0.0 0.0 0.00 0.00 0.00 93 1004.7
20260507031652 62 338 0.0 0.0 0.00 0.00 0.00 93 1004.9
20260507030904 62 338 0.0 0.0 0.00 0.00 0.00 92 1004.8
20260507030356 63 338 0.0 1.7 0.00 0.00 0.00 92 1004.8
20260507025859 63 338 0.0 1.7 0.00 0.00 0.00 92 1004.6
20260507025344 63 338 0.0 0.0 0.00 0.00 0.00 92 1004.9
20260507024730 63 338 0.0 0.0 0.00 0.00 0.00 92 1004.9
20260507024222 64 338 0.0 1.7 0.00 0.00 0.00 92 1005.0
20260507023713 64 338 0.0 1.7 0.00 0.00 0.00 92 1005.4
20260507023209 64 0 0.0 0.0 0.00 0.00 0.00 92 1005.4
20260507022654 64 0 0.0 0.0 0.00 0.00 0.00 91 1005.3
20260507022147 64 0 0.0 0.0 0.00 0.00 0.00 91 1005.2
20260507021637 65 0 0.0 0.0 0.00 0.00 0.00 91 1005.4
20260507021138 65 0 0.0 0.0 0.00 0.00 0.00 91 1005.7
20260507020635 65 0 0.0 0.0 0.00 0.00 0.00 91 1005.4
20260507020146 65 0 0.0 0.0 0.00 0.00 0.00 90 1005.4
20260507020136 65 0 0.0 0.0 0.00 0.00 0.00 90 1005.2
20260507015348 66 0 0.0 1.7 0.00 0.00 0.00 89 1005.3
20260507014845 66 0 0.0 1.7 0.00 0.00 0.00 89 1005.4
20260507014103 66 0 0.9 1.7 0.00 0.00 0.00 89 1005.7
20260507013548 66 0 0.0 3.5 0.00 0.00 0.00 89 1005.5
20260507013317 67 0 0.9 3.5 0.00 0.00 0.00 88 1005.9
20260507012814 67 0 1.7 3.5 0.00 0.00 0.00 88 1005.7
20260507012030 67 315 0.0 3.5 0.00 0.00 0.00 88 1006.0
20260507011507 67 338 1.7 3.5 0.00 0.00 0.00 87 1005.8
20260507011005 67 248 0.0 1.7 0.00 0.00 0.00 87 1006.1
20260507010522 67 248 0.0 0.0 0.00 0.00 0.00 87 1006.1
20260507010518 67 248 0.0 0.0 0.00 0.00 0.00 87 1006.3
20260507010504 67 248 0.0 0.0 0.00 0.00 0.00 87 1006.2
20260507005242 67 248 0.0 0.0 0.00 0.00 0.00 87 1006.0
20260507004728 67 248 0.0 0.0 0.00 0.00 0.00 87 1006.2
20260507004724 67 248 0.0 0.0 0.00 0.00 0.00 87 1006.2
20260507003429 67 248 0.0 0.0 0.00 0.00 0.00 87 1006.0
20260507002917 67 248 0.0 0.0 0.00 0.00 0.00 87 1006.0
20260507002415 67 248 0.0 0.0 0.00 0.00 0.00 86 1006.0
20260507001914 67 248 0.0 1.7 0.00 0.00 0.00 86 1005.7
20260507001410 67 248 0.0 1.7 0.00 0.00 0.00 86 1005.8
20260507000854 67 248 0.0 0.0 0.00 0.00 0.00 86 1005.7
20260507000358 66 248 0.0 0.0 0.00 0.00 0.00 86 1005.4
20260506235851 66 248 0.0 1.7 0.00 0.00 0.00 86 1005.3
20260506235841 66 248 0.0 0.0 0.00 0.00 0.00 86 1005.3
20260506234824 65 248 0.9 1.7 0.00 0.00 0.00 86 1005.0
20260506234322 65 248 0.0 0.0 0.00 0.00 0.00 87 1005.1
20260506233759 65 248 0.0 0.0 0.00 0.00 0.00 87 1004.9
20260506233523 65 248 0.0 0.0 0.00 0.00 0.00 87 1005.1
20260506232732 64 248 0.0 0.0 0.00 0.00 0.00 88 1004.8
20260506232212 64 248 0.0 0.0 0.00 0.00 0.00 88 1005.0
20260506231711 65 248 0.0 0.0 0.00 0.00 0.00 88 1004.9
20260506231150 64 248 0.0 0.0 0.00 0.00 0.00 88 1004.7
20260506230641 65 248 0.0 0.0 0.00 0.00 0.00 88 1004.7
20260506230131 65 248 0.0 0.0 0.00 0.00 0.00 87 1004.3
20260506225625 65 248 0.0 0.0 0.00 0.00 0.00 87 1004.3
20260506225101 65 248 0.0 0.0 0.00 0.00 0.00 86 1004.0
20260506224549 65 248 0.0 1.7 0.00 0.00 0.00 86 1003.9
20260506224032 66 248 1.7 1.7 0.00 0.00 0.00 86 1003.6
20260506223527 66 248 0.0 0.0 0.00 0.00 0.00 86 1003.6
20260506223014 66 248 0.0 0.0 0.00 0.00 0.00 85 1003.6
20260506222506 66 248 0.0 0.0 0.00 0.00 0.00 85 1003.5
20260506221939 67 248 0.0 0.0 0.00 0.00 0.00 84 1003.3
20260506221652 67 248 0.0 0.0 0.00 0.00 0.00 84 1003.1
20260506220915 67 248 0.0 1.7 0.00 0.00 0.00 83 1003.1
20260506220633 68 248 0.0 1.7 0.00 0.00 0.00 82 1003.0
20260506215859 69 248 0.0 1.7 0.00 0.00 0.00 81 1002.6
20260506215629 69 248 0.0 1.7 0.00 0.00 0.00 80 1002.7
20260506214844 69 270 0.0 0.0 0.00 0.00 0.00 79 1002.5
20260506214601 70 270 0.0 1.7 0.00 0.00 0.00 78 1002.2
20260506214058 70 270 0.0 3.5 0.00 0.00 0.00 78 1002.6
20260506213302 71 270 1.7 3.5 0.00 0.00 0.00 77 1002.7
20260506212745 71 293 0.0 3.5 0.00 0.00 0.00 76 1002.6
20260506212222 71 270 1.7 6.1 0.00 0.00 0.00 76 1002.6
20260506211948 72 293 1.7 6.1 0.00 0.00 0.00 75 1002.5
20260506211219 72 315 1.7 3.5 0.00 0.00 0.00 74 1002.6
20260506210944 73 315 2.6 5.2 0.00 0.00 0.00 73 1002.6
20260506210430 73 293 2.6 5.2 0.00 0.00 0.00 71 1002.7
20260506205920 74 293 2.6 3.5 0.00 0.00 0.00 70 1002.9
20260506205118 75 270 1.7 5.2 0.00 0.00 0.00 68 1003.0
20260506204604 74 270 1.7 6.1 0.00 0.00 0.00 69 1003.1
20260506204102 74 315 1.7 6.1 0.00 0.00 0.00 69 1003.2
20260506203600 74 270 2.6 5.2 0.00 0.00 0.00 68 1003.2
20260506203048 75 270 1.7 5.2 0.00 0.00 0.00 67 1003.1
20260506202538 75 293 1.7 6.1 0.00 0.00 0.00 67 1003.3
20260506202010 75 270 2.6 7.8 0.00 0.00 0.00 66 1003.7
20260506201453 75 293 4.3 7.8 0.00 0.00 0.00 68 1003.3
20260506200941 75 270 2.6 7.0 0.00 0.00 0.00 67 1003.3
20260506200702 75 293 3.5 7.8 0.00 0.00 0.00 66 1003.3
20260506195915 75 270 4.3 7.8 0.00 0.00 0.00 66 1003.3
20260506195402 76 315 3.5 6.1 0.00 0.00 0.00 65 1003.3
20260506194849 75 293 2.6 6.1 0.00 0.00 0.00 66 1003.7
20260506194345 76 338 3.5 9.6 0.00 0.00 0.00 66 1003.9
20260506193824 75 293 3.5 9.6 0.00 0.00 0.00 65 1004.0
20260506193305 76 315 1.7 7.8 0.00 0.00 0.00 65 1004.3
20260506192748 75 315 2.6 7.0 0.00 0.00 0.00 65 1004.1
20260506192244 76 293 1.7 7.0 0.00 0.00 0.00 65 1004.3